Simultaneous Nadir Overpasses (SNOs) Predictions

Prediction of SNOs between GOES-15 and TERRA Satellite Orbit:

Table of predicted SNOs for the next 14.0 days since TLE Epoch: 12/2/2016
Index Date Time (GOES-15) GOES-15 Lat,Lon TERRA Lat,Lon Distance(km) Time Diff (sec)
1 12/03/2016 19:19:10 -0.15,-135.37 -0.75,-132.64 310.80 80
2 12/04/2016 07:43:13 0.13,-135.38 -0.41,-137.82 277.24 80
3 12/06/2016 07:28:22 0.13,-135.37 0.24,-134.87 57.30 80
4 12/08/2016 07:16:10 0.13,-135.35 0.84,-131.90 391.29 80
5 12/08/2016 19:40:06 -0.11,-135.32 0.24,-137.06 197.82 80
6 12/10/2016 19:25:14 -0.12,-135.29 -0.36,-134.10 135.36 80
7 12/11/2016 07:49:18 0.10,-135.31 -0.73,-139.30 452.69 80
8 12/12/2016 19:13:02 -0.12,-135.26 -0.97,-131.14 467.79 80
9 12/13/2016 07:37:06
